カタログに戻る

STARLINK-3822

運用中通信VLEO
NORAD 52287·PAYLOAD·🇺🇸 United States

打ち上げ Apr 21, 2022 から Cape Canaveral Space Force Station

Loading…

次のパス (今後24時間)

TLE

最新Source: CelesTrak SupGP

元期: Sep 14, 2026, 20:42 UTC

1 52287C 22041AC  26257.86298611 -.00034735  00000+0 -11168-2 0  2575
2 52287  53.1595 327.7026 0001031  61.8545 272.9190 15.31725353    11

AllMySatでSTARLINK-3822をリアルタイム追跡

Download on the App Store